Home   Weather   Glendale   Past weeks
Flag for USA

Past Weather in Glendale, California, USA — Yesterday and Last 2 Weeks

Now
76 °F

Sunny.


Feels Like: 78 °F
Forecast: 82 / 62 °F
Wind: 7 mph from South

Location: Bob Hope Airport

Current Time: Sep 17, 2019 at 12:15:23 pm

Latest Report: Sep 17, 2019 at 10:53 am


Visibility: 10 mi

Pressure: 29.94 "Hg

Humidity: 43%

Dew Point: 52 °F

Location of GlendaleLocation

Past Weather in Glendale — Graph

°F

Glendale Temperature Yesterday

Maximum temperature yesterday: 84 °F (at 2:53 pm)
Minimum temperature yesterday: 65 °F (at 5:53 am)
Average temperature yesterday: 72 °F

High & Low Weather Summary for the Past Weeks

 TemperatureHumidityPressure
High98 °F (Sep 4, 1:53 pm)94% (Sep 16, 6:53 am)30.01 "Hg (Sep 16, 6:53 am)
Low62 °F (Sep 9, 4:53 am)15% (Sep 7, 4:53 pm)29.75 "Hg (Sep 4, 4:53 pm)
Average77 °F54%29.87 "Hg
* Reported Sep 2 10:53 am — Sep 17 10:53 am, Glendale. Weather by CustomWeather, © 2019

Note: Actual official high and low records may vary slightly from our data, if they occured in-between our weather recording intervals... More about our weather records

Advertising

Glendale Weather History for the Previous 24 Hours

Scroll right to see more
 ConditionsComfort  
Time TempWeatherWind HumidityBarometerVisibility
10:53 am
Tue, Sep 17
76 °FSunny.7 mph43%29.94 "Hg10 mi
9:53 am71 °FSunny.3 mph57%29.95 "Hg10 mi
8:53 am67 °FSunny.5 mph76%29.95 "Hg8 mi
7:53 am65 °FSunny.No wind78%29.94 "Hg8 mi
6:53 am62 °FSunny.No wind75%29.92 "Hg10 mi
5:53 am62 °FClear.No wind78%29.90 "Hg10 mi
4:53 am62 °FClear.3 mph80%29.89 "Hg10 mi
4:00 am63 °FPassing clouds.No wind81%29.93 "Hg10 mi
2:53 am65 °FPassing clouds.5 mph87%29.89 "Hg9 mi
1:53 am65 °FPassing clouds.5 mph87%29.90 "Hg10 mi
12:53 am65 °FClear.No wind87%29.88 "Hg10 mi
11:53 pm
Mon, Sep 16
66 °FClear.7 mph84%29.86 "Hg10 mi
10:53 pm67 °FClear.8 mph81%29.86 "Hg10 mi
9:53 pm68 °FClear.6 mph76%29.86 "Hg10 mi
8:53 pm69 °FClear.5 mph63%29.85 "Hg10 mi
7:53 pm70 °FClear.5 mph64%29.84 "Hg10 mi
6:53 pm74 °FSunny.8 mph52%29.82 "Hg10 mi
5:53 pm79 °FPassing clouds.10 mph39%29.82 "Hg10 mi
4:53 pm82 °FScattered clouds.12 mph32%29.82 "Hg10 mi
3:53 pm84 °FPassing clouds.10 mph27%29.82 "Hg10 mi
2:53 pm84 °FSunny.10 mph30%29.84 "Hg10 mi
1:53 pm83 °FSunny.9 mph38%29.86 "Hg10 mi
12:53 pm82 °FSunny.12 mph37%29.87 "Hg10 mi
Weather by CustomWeather, © 2019

See weather overview